Location: Unspecified
(22.6800°N, 112.2000°E)
Time: 12:31:59
(UTC+08:00)

Transit 2A - Pass Details

Date: 05 August 2021
Orbit: 595 x 963 km, 66.7° (Epoch: 16 September)

Event Time Altitude Azimuth Distance (km) Brightness Sun altitude
Rises 05:52:10 0° 234° (SW) 2,821 - -3.4°
Exits shadow 05:53:05 - 239° (WSW) 2,503 8.0 -3.2°
Reaches altitude 10° 05:54:55 10° 253° (WSW) 1,922 7.4 -2.8°
Maximum altitude 05:58:00 19° 299° (WNW) 1,439 7.1 -2.2°
Drops below altitude 10° 06:01:10 10° 345° (NNW) 1,976 8.2 -1.5°
Sets 06:04:03 0° 3° (N) 2,929 9.3 -0.9°
